DW8463 Weather Reports


time (UTC)temp
C
wind
direction
speed
KPH
gust
KPH
rain 1hr
cm
rain 24hr
cm
rain mn
cm
humidity
%
barometer
mb
20260831220304 31 275 1.6 8.0 0.00 0.00 0.00 70 1008.6
20260831215804 31 215 1.6 8.0 0.00 0.00 0.00 78 1008.6
20260831215306 31 209 1.6 4.8 0.00 0.00 0.00 78 1008.6
20260831214804 30 332 0.0 0.0 0.00 0.00 0.00 78 1008.6
20260831214303 30 332 0.0 4.8 0.00 0.00 0.00 78 1008.5
20260831213803 30 265 0.0 4.8 0.00 0.00 0.00 78 1008.5
20260831213303 31 254 1.6 9.7 0.00 0.00 0.00 78 1008.4
20260831212803 31 285 4.8 11.3 0.00 0.00 0.00 78 1008.5
20260831212306 31 333 3.2 4.8 0.00 0.00 0.00 78 1008.4
20260831211803 31 298 4.8 9.7 0.00 0.00 0.00 78 1008.4
20260831211304 31 266 0.0 4.8 0.00 0.00 0.00 78 1008.4
20260831210303 31 84 1.6 4.8 0.00 0.00 0.00 80 1008.3
20260831205803 31 96 1.6 4.8 0.00 0.00 0.00 88 1008.3
20260831205305 30 323 0.0 4.8 0.00 0.00 0.00 88 1008.3
20260831204804 31 308 6.4 14.5 0.00 0.00 0.00 88 1008.3
20260831203303 30 319 1.6 12.9 0.00 0.00 0.00 88 1008.3
20260831202803 30 313 4.8 11.3 0.00 0.00 0.00 88 1008.3
20260831201803 30 324 3.2 9.7 0.00 0.00 0.00 88 1008.4
20260831201303 30 6 8.0 12.9 0.00 0.00 0.00 88 1008.4
20260831200803 30 285 4.8 11.3 0.00 0.00 0.00 88 1008.4
20260831200303 30 274 3.2 8.0 0.00 0.00 0.00 88 1008.4
20260831195804 30 117 0.0 1.6 0.00 0.00 0.00 88 1008.3
20260831195306 29 63 3.2 4.8 0.00 0.00 0.00 88 1008.4
20260831194303 28 39 1.6 3.2 0.00 0.00 0.00 88 1008.3
20260831193803 28 313 1.6 4.8 0.00 0.00 0.00 88 1008.3
20260831192803 29 330 1.6 3.2 0.00 0.00 0.00 88 1008.4
20260831192305 29 229 1.6 4.8 0.00 0.00 0.00 88 1008.4
20260831191804 28 310 0.0 1.6 0.00 0.00 0.00 88 1008.4
20260831191303 28 167 0.0 4.8 0.00 0.00 0.00 88 1008.4
20260831190804 28 167 1.6 4.8 0.00 0.00 0.00 88 1008.5
20260831185804 28 304 1.6 4.8 0.00 0.00 0.00 78 1008.5
20260831185306 28 229 0.0 4.8 0.00 0.00 0.00 78 1008.5
20260831184804 28 305 3.2 8.0 0.00 0.00 0.00 78 1008.5
20260831184303 28 306 3.2 4.8 0.00 0.00 0.00 78 1008.5
20260831183803 28 276 1.6 4.8 0.00 0.00 0.00 78 1008.4
20260831183304 28 297 3.2 4.8 0.00 0.00 0.00 78 1008.5
20260831182305 28 14 1.6 4.8 0.00 0.00 0.00 78 1008.6
20260831181304 28 298 3.2 8.0 0.00 0.00 0.00 78 1008.6
20260831180804 28 266 1.6 4.8 0.00 0.00 0.00 78 1008.6
20260831180304 28 274 3.2 4.8 0.00 0.00 0.00 78 1008.6
20260831175803 28 312 0.0 3.2 0.00 0.00 0.00 80 1008.5
20260831175306 28 312 1.6 8.0 0.00 0.00 0.00 80 1008.6
20260831174803 28 301 3.2 4.8 0.00 0.00 0.00 80 1008.6
20260831174303 27 269 3.2 4.8 0.00 0.00 0.00 80 1008.6
20260831173803 27 269 0.0 4.8 0.00 0.00 0.00 80 1008.5
20260831173303 27 269 1.6 4.8 0.00 0.00 0.00 80 1008.5
20260831172803 27 324 0.0 1.6 0.00 0.00 0.00 80 1008.5
20260831172306 27 324 3.2 4.8 0.00 0.00 0.00 80 1008.6
20260831171304 27 344 1.6 4.8 0.00 0.00 0.00 80 1008.7
20260831170304 27 309 3.2 8.0 0.00 0.00 0.00 80 1008.7
20260831165804 27 268 0.0 4.8 0.00 0.00 0.00 82 1008.8
20260831165305 27 278 1.6 4.8 0.00 0.00 0.00 82 1008.9
20260831164803 27 267 1.6 4.8 0.00 0.00 0.00 82 1008.9
20260831164304 27 321 4.8 8.0 0.00 0.00 0.00 82 1008.9
20260831163803 27 253 1.6 11.3 0.00 0.00 0.00 82 1008.9
20260831163304 27 212 1.6 8.0 0.00 0.00 0.00 82 1008.8
20260831162804 28 265 3.2 11.3 0.00 0.00 0.00 82 1008.8
20260831162306 28 272 3.2 9.7 0.00 0.00 0.00 82 1008.7
20260831161303 27 288 3.2 11.3 0.00 0.00 0.00 82 1008.5
20260831160803 27 283 3.2 9.7 0.00 0.00 0.00 82 1008.5
20260831160304 27 226 1.6 11.3 0.00 0.00 0.00 84 1008.5
20260831155803 27 215 1.6 4.8 0.00 0.00 0.00 93 1008.7
20260831155306 27 247 1.6 3.2 0.00 0.00 0.00 93 1008.6
20260831154803 27 328 1.6 8.0 0.00 0.00 0.00 93 1008.4
20260831153804 27 307 3.2 8.0 0.00 0.00 0.00 93 1008.2
20260831153303 27 319 3.2 9.7 0.00 0.00 0.00 93 1008.1
20260831152803 27 255 3.2 12.9 0.00 0.00 0.00 93 1008.1
20260831152306 27 13 1.6 12.9 0.00 0.00 0.00 93 1008.1
20260831151803 27 335 3.2 9.7 0.00 0.00 0.00 93 1008.0
20260831151304 27 282 3.2 11.3 0.00 0.00 0.00 93 1008.0
20260831150804 27 276 1.6 4.8 0.00 0.00 0.00 93 1007.9
20260831150303 26 298 3.2 8.0 0.00 0.00 0.00 93 1008.0
20260831145803 26 311 4.8 12.9 0.00 0.00 0.00 93 1007.8
20260831145306 26 287 0.0 4.8 0.00 0.00 0.00 93 1007.7
20260831144804 27 290 1.6 8.0 0.00 0.00 0.00 93 1007.7
20260831144303 27 279 4.8 12.9 0.00 0.00 0.00 93 1007.6
20260831143804 27 315 3.2 14.5 0.00 0.00 0.00 93 1007.5
20260831142803 26 273 4.8 12.9 0.00 0.00 0.00 93 1007.6
20260831141804 26 221 4.8 12.9 0.00 0.00 0.00 93 1007.4
20260831141303 26 219 1.6 9.7 0.00 0.00 0.00 93 1007.4
20260831140803 25 191 3.2 9.7 0.00 0.00 0.00 93 1007.3
20260831140304 25 71 0.0 0.0 0.00 0.00 0.00 93 1007.2
20260831135803 25 70 1.6 3.2 0.00 0.00 0.00 100 1007.2
20260831135306 25 315 0.0 8.0 0.00 0.00 0.00 100 1007.2
20260831134804 25 239 1.6 4.8 0.00 0.00 0.00 100 1007.2
20260831134304 25 289 4.8 16.1 0.00 0.00 0.00 100 1007.1
20260831133804 24 311 0.0 3.2 0.00 0.00 0.00 100 1007.2
20260831133304 24 307 0.0 0.0 0.00 0.00 0.00 100 1007.1
20260831132803 23 278 1.6 4.8 0.00 0.00 0.00 100 1007.1
20260831132306 23 351 0.0 0.0 0.00 0.00 0.00 100 1007.0
20260831131804 22 351 0.0 0.0 0.00 0.00 0.00 100 1006.9
20260831131303 22 351 0.0 0.0 0.00 0.00 0.00 100 1007.0
20260831130803 22 351 0.0 0.0 0.00 0.00 0.00 100 1006.9
20260831130303 22 351 0.0 0.0 0.00 0.00 0.00 100 1007.0
20260831125803 22 175 0.0 0.0 0.00 0.00 0.00 100 1006.8
20260831124804 21 175 0.0 0.0 0.00 0.00 0.00 100 1006.9
20260831124303 21 175 0.0 0.0 0.00 0.00 0.00 100 1006.9
20260831123803 21 175 0.0 0.0 0.00 0.00 0.00 100 1006.9
20260831123304 21 313 0.0 0.0 0.00 0.00 0.00 100 1006.8
20260831122803 21 250 0.0 0.0 0.00 0.00 0.00 100 1006.7
20260831122305 20 260 0.0 0.0 0.00 0.00 0.00 100 1006.7
20260831121803 20 277 0.0 0.0 0.00 0.00 0.00 100 1006.6
20260831121303 20 0 0.0 0.0 0.00 0.00 0.00 100 1006.5
20260831120804 20 0 0.0 0.0 0.00 0.00 0.00 100 1006.5
20260831120304 20 0 0.0 0.0 0.00 0.00 0.00 100 1006.4
20260831115306 20 0 0.0 0.0 0.00 0.00 0.00 100 1006.4
20260831114803 20 0 0.0 0.0 0.00 0.00 0.00 100 1006.3
20260831112307 20 0 0.0 0.0 0.00 0.00 0.00 100 1006.1
20260831111804 20 0 0.0 0.0 0.00 0.00 0.00 100 1006.1
20260831111303 20 0 0.0 0.0 0.00 0.00 0.00 100 1006.2
20260831110803 20 0 0.0 0.0 0.00 0.00 0.00 100 1006.2
20260831105803 20 0 0.0 0.0 0.00 0.00 0.00 100 1006.0
20260831105306 20 0 0.0 0.0 0.00 0.00 0.00 100 1006.1
20260831104804 20 0 0.0 0.0 0.00 0.00 0.00 100 1006.1
20260831104303 20 0 0.0 0.0 0.00 0.00 0.00 100 1006.1
20260831103804 20 0 0.0 0.0 0.00 0.00 0.00 100 1006.2
20260831103304 20 0 0.0 0.0 0.00 0.00 0.00 100 1006.2
20260831102803 20 0 0.0 0.0 0.00 0.00 0.00 100 1006.1
20260831102306 20 0 0.0 0.0 0.00 0.00 0.00 100 1006.2
20260831101804 20 0 0.0 0.0 0.00 0.00 0.00 100 1006.2
20260831100803 20 0 0.0 0.0 0.00 0.00 0.00 100 1006.2
20260831100304 20 0 0.0 0.0 0.00 0.00 0.00 100 1006.2
20260831095803 20 0 0.0 0.0 0.00 0.00 0.00 100 1006.2
20260831094804 20 0 0.0 0.0 0.00 0.00 0.00 100 1006.2
20260831094303 20 0 0.0 0.0 0.00 0.00 0.00 100 1006.2
20260831093804 20 0 0.0 0.0 0.00 0.00 0.00 100 1006.2
20260831093304 20 0 0.0 0.0 0.00 0.00 0.00 100 1006.3
20260831092306 20 0 0.0 0.0 0.00 0.00 0.00 100 1006.1
20260831091803 20 0 0.0 0.0 0.00 0.00 0.00 100 1006.1
20260831091304 20 0 0.0 0.0 0.00 0.00 0.00 100 1006.2
20260831090803 20 0 0.0 0.0 0.00 0.00 0.00 100 1006.1
20260831090303 20 0 0.0 0.0 0.00 0.00 0.00 100 1006.2
20260831085804 20 0 0.0 0.0 0.00 0.00 0.00 100 1006.1
20260831085306 20 0 0.0 0.0 0.00 0.00 0.00 100 1006.1
20260831084303 20 0 0.0 0.0 0.00 0.00 0.00 100 1006.2
20260831083803 20 0 0.0 0.0 0.00 0.00 0.00 100 1006.2
20260831083303 20 0 0.0 0.0 0.00 0.00 0.00 100 1006.0
20260831082803 20 0 0.0 0.0 0.00 0.00 0.00 100 1006.0
20260831082306 20 0 0.0 0.0 0.00 0.00 0.00 100 1006.0
20260831081804 20 0 0.0 0.0 0.00 0.00 0.00 100 1005.9
20260831081303 20 0 0.0 0.0 0.00 0.00 0.00 100 1006.0
20260831080804 20 0 0.0 0.0 0.00 0.00 0.00 100 1006.0
20260831080303 20 0 0.0 0.0 0.00 0.00 0.00 100 1005.9
20260831075804 20 0 0.0 0.0 0.00 0.00 0.00 100 1006.0
20260831075306 20 0 0.0 0.0 0.00 0.00 0.00 100 1006.0
20260831074803 20 0 0.0 0.0 0.00 0.00 0.00 100 1006.0
20260831073804 20 0 0.0 0.0 0.00 0.00 0.00 100 1006.1
20260831073304 20 0 0.0 0.0 0.00 0.00 0.00 100 1006.2
20260831072804 20 0 0.0 0.0 0.00 0.00 0.00 100 1006.3
20260831071305 20 0 0.0 0.0 0.00 0.00 0.00 100 1006.4
20260831070803 20 0 0.0 0.0 0.00 0.00 0.00 100 1006.6
20260831070303 20 0 0.0 0.0 0.00 0.00 0.00 100 1006.6
20260831065803 20 0 0.0 0.0 0.00 0.00 0.00 100 1006.5
20260831064803 20 0 0.0 0.0 0.00 0.00 0.00 100 1006.5
20260831064304 21 0 0.0 0.0 0.00 0.00 0.00 100 1006.5
20260831063804 21 0 0.0 0.0 0.00 0.00 0.00 100 1006.6
20260831063303 21 0 0.0 0.0 0.00 0.00 0.00 100 1006.6
20260831062803 21 0 0.0 0.0 0.00 0.00 0.00 100 1006.7
20260831062305 21 0 0.0 0.0 0.00 0.00 0.00 100 1006.9
20260831061804 21 0 0.0 0.0 0.00 0.00 0.00 100 1006.9
20260831060803 21 0 0.0 0.0 0.00 0.00 0.00 100 1007.0
20260831060303 21 0 0.0 0.0 0.00 0.00 0.00 100 1007.0
20260831055306 21 0 0.0 0.0 0.00 0.00 0.00 98 1007.1
20260831054803 21 0 0.0 0.0 0.00 0.00 0.00 98 1007.1
20260831053804 21 0 0.0 0.0 0.00 0.00 0.00 98 1007.1
20260831053303 21 0 0.0 0.0 0.00 0.00 0.00 98 1007.1
20260831052306 22 216 0.0 3.2 0.00 0.00 0.00 98 1007.3
20260831051804 22 356 0.0 4.8 0.00 0.00 0.00 98 1007.3
20260831051303 22 313 0.0 1.6 0.00 0.00 0.00 98 1007.4
20260831050814 22 355 0.0 0.0 0.00 0.00 0.00 98 1007.3
20260831050303 22 353 0.0 0.0 0.00 0.00 0.00 98 1007.3
20260831045306 22 297 0.0 0.0 0.00 0.00 0.00 94 1007.3
20260831044804 22 348 0.0 4.8 0.00 0.00 0.00 94 1007.3
20260831044304 22 274 1.6 4.8 0.00 0.00 0.00 94 1007.3
20260831043803 22 226 0.0 4.8 0.00 0.00 0.00 94 1007.3
20260831043303 22 222 1.6 4.8 0.00 0.00 0.00 94 1007.4
20260831042804 22 258 1.6 4.8 0.00 0.00 0.00 94 1007.3
20260831042306 22 226 0.0 3.2 0.00 0.00 0.00 94 1007.4
20260831041303 22 247 0.0 3.2 0.00 0.00 0.00 94 1007.4
20260831040804 22 225 0.0 1.6 0.00 0.00 0.00 94 1007.4
20260831040303 22 219 1.6 4.8 0.00 0.00 0.00 94 1007.4
20260831035804 22 270 0.0 0.0 0.00 0.00 0.00 91 1007.3
20260831035306 22 344 0.0 3.2 0.00 0.00 0.00 91 1007.3
20260831034804 22 262 0.0 4.8 0.00 0.00 0.00 91 1007.4
20260831034303 22 241 0.0 4.8 0.00 0.00 0.00 91 1007.5
20260831033804 22 197 0.0 4.8 0.00 0.00 0.00 91 1007.5
20260831033303 22 202 1.6 4.8 0.00 0.00 0.00 91 1007.5
20260831032804 22 218 0.0 8.0 0.00 0.00 0.00 91 1007.5
20260831032306 22 216 0.0 4.8 0.00 0.00 0.00 91 1007.6
20260831031804 22 201 0.0 3.2 0.00 0.00 0.00 91 1007.6
20260831031304 22 180 3.2 8.0 0.00 0.00 0.00 91 1007.7
20260831030804 22 147 0.0 4.8 0.00 0.00 0.00 91 1007.8
20260831030304 22 134 1.6 4.8 0.00 0.00 0.00 91 1007.8
20260831024803 23 155 0.0 0.0 0.00 0.00 0.00 92 1007.9
20260831023803 23 164 3.2 12.9 0.00 0.00 0.00 92 1007.9
20260831023304 23 168 1.6 4.8 0.00 0.00 0.00 92 1008.0
20260831022803 23 221 1.6 8.0 0.00 0.00 0.00 92 1008.0
20260831022306 23 162 3.2 9.7 0.00 0.00 0.00 92 1008.0
20260831021803 23 182 3.2 11.3 0.00 0.00 0.00 92 1008.0
20260831020804 23 157 3.2 9.7 0.00 0.00 0.00 92 1007.9
20260831020303 23 180 1.6 4.8 0.00 0.00 0.00 92 1007.9
20260831015804 23 144 3.2 11.3 0.00 0.00 0.00 87 1007.9
20260831015306 23 157 1.6 9.7 0.00 0.00 0.00 87 1007.8
20260831013803 23 152 1.6 8.0 0.00 0.00 0.00 87 1007.8
20260831013304 23 142 1.6 4.8 0.00 0.00 0.00 87 1007.8
20260831012803 23 167 3.2 4.8 0.00 0.00 0.00 87 1007.5
20260831012306 24 171 1.6 9.7 0.00 0.00 0.00 87 1007.4
20260831011803 24 155 3.2 11.3 0.00 0.00 0.00 87 1007.3
20260831010804 24 187 1.6 9.7 0.00 0.00 0.00 87 1007.3
20260831005803 25 149 3.2 11.3 0.00 0.00 0.00 82 1007.2
20260831005306 25 157 3.2 19.3 0.00 0.00 0.00 82 1007.1
20260831004803 25 171 6.4 19.3 0.00 0.00 0.00 82 1007.0
20260831004304 25 154 3.2 11.3 0.00 0.00 0.00 82 1007.0
20260831003803 25 160 4.8 19.3 0.00 0.00 0.00 82 1007.1
20260831003304 25 178 11.3 20.9 0.00 0.00 0.00 82 1007.2
20260831002306 25 169 6.4 20.9 0.00 0.00 0.00 82 1007.3
20260831001803 25 184 9.7 19.3 0.00 0.00 0.00 82 1007.2
20260831001305 26 167 3.2 16.1 0.00 0.00 0.00 82 1007.2
20260831000804 26 172 4.8 14.5 0.00 0.00 0.00 82 1007.2
20260831000304 26 161 4.8 12.9 0.00 0.00 0.00 82 1007.3
20260830235804 26 166 4.8 19.3 0.00 0.00 0.00 73 1007.3
20260830235305 26 166 8.0 19.3 0.00 0.00 0.00 73 1007.3
20260830234803 26 168 6.4 19.3 0.00 0.00 0.00 73 1007.3
20260830234304 26 179 8.0 19.3 0.00 0.00 0.00 73 1007.2
20260830233803 26 163 1.6 3.2 0.00 0.00 0.00 73 1007.2
20260830232803 27 191 1.6 9.7 0.00 0.00 0.00 73 1007.1
20260830231804 27 178 3.2 9.7 0.00 0.00 0.00 73 1007.1
20260830231304 27 166 3.2 19.3 0.00 0.00 0.00 73 1007.1
20260830230803 27 146 4.8 12.9 0.00 0.00 0.00 73 1007.1
20260830230303 27 185 3.2 4.8 0.00 0.00 0.00 73 1007.0
20260830225306 28 161 1.6 14.5 0.00 0.00 0.00 69 1007.0
20260830224804 28 174 3.2 16.1 0.00 0.00 0.00 69 1006.8
20260830224304 28 148 3.2 16.1 0.00 0.00 0.00 69 1006.7
20260830223304 28 192 1.6 11.3 0.00 0.00 0.00 69 1006.7
20260830222803 28 175 4.8 16.1 0.00 0.00 0.00 69 1006.6
20260830222306 28 188 3.2 16.1 0.00 0.00 0.00 69 1006.6
20260830221803 28 151 9.7 19.3 0.00 0.00 0.00 69 1006.7
20260830221304 28 154 3.2 16.1 0.00 0.00 0.00 69 1006.8